Zurück zum Katalog

SL-16 DEB

AktivLEO
NORAD 22451·DEBRIS·🇷🇺 Russia

Gestartet Dec 25, 1992 von Baikonur Cosmodrome

Loading…

Nächste Überflüge (nächste 24 Stunden)

TLE

AktuellSource: Space-Track

Epoche: Sep 13, 2026, 22:13 UTC

1 22451U 92093EQ  26256.92604064  .00000059  00000-0  72281-4 0  9997
2 22451  71.1383 312.0489 0128951  43.7554 131.1715 13.94366503712054

Verfolge SL-16 DEB in Echtzeit mit AllMySat

Download on the App Store